Home   Weather   48°42'N, 2°15'E   Past weeks
Flag for France

Past Weather in 48°42'N, 2°15'E, France — Yesterday and Last 2 Weeks

Now
43 °F

Drizzle. Low clouds.


Feels Like: 39 °F
Forecast: 46 / 37 °F
Wind: 7 mph from Southwest

Location: Villacoublay

Current Time: Dec 11, 2019 at 6:38:03 am

Latest Report: Dec 11, 2019 at 5:30 am


Visibility: N/A

Pressure: 29.86 "Hg

Humidity: 100%

Dew Point: 43 °F

Location of 48°42'N, 2°15'ELocation

Past Weather in 48°42'N, 2°15'E — Graph

°F

48°42'N, 2°15'E Temperature Yesterday

Maximum temperature yesterday: 45 °F (at 3:00 pm)
Minimum temperature yesterday: 32 °F (at 2:00 am)
Average temperature yesterday: 39 °F

High & Low Weather Summary for the Past Weeks

 TemperatureHumidityPressure
High54 °F (Nov 26, 2:00 pm)100% (Nov 26, 5:30 am)30.42 "Hg (Nov 26, 5:30 am)
Low25 °F (Dec 5, 3:00 am)61% (Nov 30, 2:30 pm)29.24 "Hg (Nov 27, 1:30 am)
Average42 °F89%29.96 "Hg
* Reported Nov 26 5:00 am — Dec 11 5:00 am, 48°42'N, 2°15'E. Weather by CustomWeather, © 2019

Note: Actual official high and low records may vary slightly from our data, if they occured in-between our weather recording intervals... More about our weather records

48°42'N, 2°15'E Weather History for the Previous 24 Hours

Scroll right to see more
 ConditionsComfort  
Time TempWeatherWind HumidityBarometerVisibility
5:00 am
Wed, Dec 11
43 °FLight rain. Low clouds.8 mph100%29.86 "HgN/A
4:30 am43 °FLight rain. Low clouds.9 mph100%29.89 "Hg5 mi
4:00 am43 °FLow clouds.9 mph100%29.89 "HgN/A
3:30 am43 °FLow clouds.12 mph100%29.89 "HgN/A
3:00 am43 °FDrizzle. Low clouds.10 mph100%29.92 "Hg5 mi
2:30 am45 °FMostly cloudy.13 mph87%29.92 "HgN/A
2:00 am45 °FMostly cloudy.13 mph87%29.92 "HgN/A
1:30 am45 °FMostly cloudy.10 mph87%29.95 "HgN/A
1:00 am43 °FMostly cloudy.12 mph93%29.95 "HgN/A
12:30 am43 °FOvercast.14 mph93%29.95 "HgN/A
12:00 am43 °FPassing clouds.12 mph93%29.98 "HgN/A
11:30 pm
Tue, Dec 10
43 °FMostly cloudy.13 mph87%29.98 "HgN/A
11:00 pm45 °FMostly cloudy.13 mph81%30.01 "HgN/A
10:30 pm43 °FOvercast.14 mph81%30.01 "HgN/A
10:00 pm43 °FOvercast.14 mph81%30.01 "HgN/A
9:30 pm43 °FMostly cloudy.14 mph81%30.04 "HgN/A
9:00 pm43 °FPassing clouds.14 mph81%30.04 "HgN/A
8:30 pm43 °FMostly cloudy.13 mph81%30.07 "HgN/A
8:00 pm43 °FPassing clouds.15 mph81%30.07 "HgN/A
7:30 pm43 °FOvercast.14 mph81%30.09 "HgN/A
7:00 pm43 °FPassing clouds.14 mph81%30.09 "HgN/A
6:30 pm43 °FPassing clouds.13 mph81%30.09 "HgN/A
6:00 pm43 °FMostly cloudy.15 mph81%30.09 "HgN/A
5:30 pm43 °FMostly cloudy.14 mph81%30.12 "HgN/A
5:00 pm43 °FOvercast.12 mph81%30.12 "HgN/A
4:30 pm43 °FMostly cloudy.12 mph81%30.15 "HgN/A
4:00 pm43 °FPartly sunny.12 mph81%30.18 "HgN/A
3:30 pm43 °FPassing clouds.13 mph81%30.18 "HgN/A
3:00 pm45 °FSunny.15 mph76%30.18 "Hg10 mi
2:30 pm43 °FPassing clouds.13 mph81%30.21 "HgN/A
2:00 pm43 °FPassing clouds.13 mph81%30.24 "HgN/A
1:30 pm43 °FPassing clouds.12 mph81%30.24 "HgN/A
1:00 pm43 °FPassing clouds.13 mph81%30.27 "HgN/A
12:30 pm43 °FPassing clouds.12 mph81%30.27 "HgN/A
12:00 pm41 °FPassing clouds.10 mph81%30.30 "HgN/A
11:30 am41 °FPassing clouds.12 mph81%30.30 "HgN/A
10:30 am37 °FSunny.7 mph87%30.33 "Hg10 mi
10:00 am37 °FSunny.6 mph87%30.30 "Hg10 mi
9:30 am36 °FSunny.5 mph93%30.33 "Hg10 mi
9:00 am36 °FPassing clouds.3 mph87%30.33 "HgN/A
8:30 am36 °FClear.6 mph93%30.33 "Hg10 mi
8:00 am36 °FClear.5 mph87%30.33 "Hg10 mi
7:30 am34 °FClear.5 mph93%30.33 "Hg10 mi
7:00 am34 °FClear.5 mph93%30.33 "Hg10 mi
6:30 am34 °FClear.5 mph93%30.33 "Hg10 mi
6:00 am32 °FClear.2 mph100%30.33 "Hg10 mi
Weather by CustomWeather, © 2019

See weather overview

Advertising